Content
SEND FEEDBACK

Daily
Averages
Monthly
Summary
United States of America

LAVEEN, ARIZONA


Home > North America > United States > Arizona
Elevation: 1110 feet     Latitude: 33 28N     Longitude: 112 04W

WEATHER
 
SELECT A DAY
Number of Records: 175,122;   Date Range: 1/1/95 - 12/17/14
 
SHARE

PRINT THIS DATA

[ ← Previous Day ]
WEATHER ALMANAC - FEBRUARY 13, 2013
[ Next Day → ]
[ °C ]   °F
Weather ElementAverageHighLow
Temperature52.1 °F63 °F (2:51 pm)39.9 °F (6:51 am)
Dewpoint25.1 °F32 °F (1:51 am)14 °F (6:51 pm)
Humidity40 %73 % (6:51 am)16 % (3:51 pm)
Barometer30.14 in30.20 in (8:51 am)30.07 in (5:51 pm)
Wind Speed2.7 mph6.9 mph (9:51 am)
Weather ElementAverage
Visibility10 mi
Wind DirectionE (90.9 °)

Weather ElementTotal
Precipitation---
Heating Degree Days13.6 (Base 65)
Growing Degree Days1.5 (Base 50)
Averaged from 23 records on February 13, 2013
WEATHER CONDITIONS BREAKOUT
WIND DIRECTION BREAKOUT
WEATHER BY HOUR - FEBRUARY 13, 2013
[ °C ]   °F
Local TimeTemperatureDewpointHumidityBarometerVisibilityWind DirectionWind SpeedGust SpeedPrecipitationEventsConditions
1:51 AM44.1 °F32.0 °F63 %30.19 in10.0 miCalmClear
2:51 AM43.0 °F32.0 °F65 %30.17 in10.0 miCalmClear
3:51 AM43.0 °F30.9 °F62 %30.16 in10.0 miCalmClear
4:51 AM41.0 °F32.0 °F70 %30.16 in10.0 miCalmClear
5:51 AM41.0 °F30.9 °F67 %30.17 in10.0 miCalmClear
6:51 AM39.9 °F32.0 °F73 %30.17 in10.0 miEast (100°)4.6 mphClear
7:51 AM41.0 °F30.0 °F65 %30.18 in10.0 miEast (100°)4.6 mphClear
8:51 AM46.9 °F28.9 °F50 %30.20 in10.0 miESE (120°)4.6 mphClear
9:51 AM50.0 °F26.1 °F39 %30.20 in10.0 miEast (100°)6.9 mphClear
10:51 AM52.0 °F25.0 °F35 %30.20 in10.0 miEast (90°)3.5 mphClear
11:51 AM55.9 °F24.1 °F29 %30.19 in10.0 miNE (50°)3.5 mphClear
12:51 PM57.9 °F21.0 °F24 %30.15 in10.0 miNNW (340°)3.5 mphClear
1:51 PM60.1 °F19.9 °F21 %30.12 in10.0 miCalmClear
2:51 PM63.0 °F17.1 °F17 %30.10 in10.0 miSW (220°)5.8 mphClear
3:51 PM63.0 °F15.1 °F16 %30.09 in10.0 miCalmClear
4:51 PM63.0 °F18.0 °F18 %30.08 in10.0 miWSW (250°)6.9 mphClear
5:51 PM62.1 °F19.0 °F19 %30.07 in10.0 miWSW (240°)6.9 mphClear
6:51 PM60.1 °F14.0 °F16 %30.08 in10.0 miWest (260°)5.8 mphClear
7:51 PM57.0 °F21.9 °F26 %30.09 in10.0 miSW (220°)4.6 mphClear
8:51 PM55.0 °F26.1 °F33 %30.09 in10.0 miCalmClear
9:51 PM55.9 °F24.1 °F29 %30.09 in10.0 miCalmClear
10:51 PM51.1 °F28.9 °F43 %30.09 in10.0 miCalmClear
11:51 PM51.8 °F28.4 °F41 %30.11 in10.0 miCalmClear
Hourly data recorded from KPHX, located miles away from Laveen, Arizona







STORIES FROM OUR PARTNERS